Time,TemperatureF,DewpointF,PressureIn,WindDirection,WindDirectionDegrees,WindSpeedMPH,WindSpeedGustMPH,Humidity,HourlyPrecipIn,Conditions,Clouds,dailyrainin,SoftwareType,DateUTC
2013-01-20 00:00:00,42.6,36.9,29.76,SSW,202,0.0,0.0,80,0.00,,,0.00,WUHU21623XXSP,2013-01-20 05:00:00,
2013-01-20 00:01:00,42.6,36.9,29.76,SSW,202,0.0,0.0,80,0.00,,,0.00,WUHU21623XXSP,2013-01-20 05:01:00,
2013-01-20 00:02:00,42.6,36.9,29.76,SSW,202,0.0,0.0,80,0.00,,,0.00,WUHU21623XXSP,2013-01-20 05:02:00,
2013-01-20 00:03:00,42.6,36.9,29.76,SSW,202,0.0,0.0,80,0.00,,,0.00,WUHU21623XXSP,2013-01-20 05:03:00,
2013-01-20 00:08:00,42.4,36.7,29.76,SSW,202,0.0,0.0,80,0.00,,,0.00,WUHU21623XXSP,2013-01-20 05:08:00,
2013-01-20 00:13:00,42.1,36.6,29.75,SSW,202,0.0,0.0,81,0.00,,,0.00,WUHU21623XXSP,2013-01-20 05:13:00,
2013-01-20 00:18:00,42.1,36.6,29.75,SSW,202,0.0,0.0,81,0.00,,,0.00,WUHU21623XXSP,2013-01-20 05:18:00,
2013-01-20 00:24:00,41.9,36.4,29.75,SSW,202,0.0,0.0,81,0.00,,,0.00,WUHU21623XXSP,2013-01-20 05:24:00,
2013-01-20 00:29:00,41.7,36.3,29.75,SSW,202,0.0,0.0,81,0.00,,,0.00,WUHU21623XXSP,2013-01-20 05:29:00,
2013-01-20 00:34:00,41.5,36.4,29.74,SSW,202,0.0,0.0,82,0.00,,,0.00,WUHU21623XXSP,2013-01-20 05:34:00,
2013-01-20 00:39:00,41.5,36.4,29.74,SSW,202,0.0,0.0,82,0.00,,,0.00,WUHU21623XXSP,2013-01-20 05:39:00,
2013-01-20 00:44:00,41.4,36.2,29.74,SSW,202,0.0,0.0,82,0.00,,,0.00,WUHU21623XXSP,2013-01-20 05:44:00,
2013-01-20 00:49:00,41.2,36.0,29.74,SSW,202,0.0,0.0,82,0.00,,,0.00,WUHU21623XXSP,2013-01-20 05:49:00,
2013-01-20 00:54:00,41.0,36.2,29.74,SSW,202,0.0,0.0,83,0.00,,,0.00,WUHU21623XXSP,2013-01-20 05:54:00,
2013-01-20 01:00:00,40.8,36.0,29.74,SSW,202,0.0,0.0,83,0.00,,,0.00,WUHU21623XXSP,2013-01-20 06:00:00,
2013-01-20 01:05:00,40.8,36.0,29.74,SSW,202,0.0,0.0,83,0.00,,,0.00,WUHU21623XXSP,2013-01-20 06:05:00,
2013-01-20 01:10:00,40.6,35.8,29.74,SSW,202,0.0,0.0,83,0.00,,,0.00,WUHU21623XXSP,2013-01-20 06:10:00,
2013-01-20 01:15:00,40.5,35.7,29.74,SSW,202,0.0,0.0,83,0.00,,,0.00,WUHU21623XXSP,2013-01-20 06:15:00,
2013-01-20 01:20:00,40.3,35.8,29.73,SSW,202,0.0,0.0,84,0.00,,,0.00,WUHU21623XXSP,2013-01-20 06:20:00,
2013-01-20 01:25:00,40.3,35.8,29.74,SSW,202,0.0,0.0,84,0.00,,,0.00,WUHU21623XXSP,2013-01-20 06:25:00,
2013-01-20 01:30:00,40.5,35.9,29.74,SSW,202,0.0,0.0,84,0.00,,,0.00,WUHU21623XXSP,2013-01-20 06:30:00,
2013-01-20 01:35:00,40.6,36.1,29.73,SSW,202,0.0,0.0,84,0.00,,,0.00,WUHU21623XXSP,2013-01-20 06:35:00,
2013-01-20 01:40:00,40.6,36.1,29.74,SSW,202,0.0,0.0,84,0.00,,,0.00,WUHU21623XXSP,2013-01-20 06:40:00,
2013-01-20 01:45:00,40.8,36.3,29.74,SSW,202,0.0,0.0,84,0.00,,,0.00,WUHU21623XXSP,2013-01-20 06:45:00,
2013-01-20 01:50:00,40.8,36.3,29.73,SSW,202,0.0,0.0,84,0.00,,,0.00,WUHU21623XXSP,2013-01-20 06:50:00,
2013-01-20 01:55:00,40.6,36.1,29.74,SSW,202,0.0,0.0,84,0.00,,,0.00,WUHU21623XXSP,2013-01-20 06:55:00,
2013-01-20 02:00:00,40.5,35.9,29.73,SSW,202,0.0,0.0,84,0.00,,,0.00,WUHU21623XXSP,2013-01-20 07:00:00,
2013-01-20 02:05:00,40.3,36.1,29.73,SSW,202,0.0,0.0,85,0.00,,,0.00,WUHU21623XXSP,2013-01-20 07:05:00,
2013-01-20 02:10:00,40.3,36.1,29.73,SSW,202,0.0,0.0,85,0.00,,,0.00,WUHU21623XXSP,2013-01-20 07:10:00,
2013-01-20 02:15:00,40.3,36.1,29.73,SSW,202,0.0,0.0,85,0.00,,,0.00,WUHU21623XXSP,2013-01-20 07:15:00,
2013-01-20 02:20:00,40.3,36.1,29.73,SSW,202,0.0,0.0,85,0.00,,,0.00,WUHU21623XXSP,2013-01-20 07:20:00,
2013-01-20 02:25:00,40.5,36.6,29.73,SSW,202,0.0,0.0,86,0.00,,,0.00,WUHU21623XXSP,2013-01-20 07:25:00,
2013-01-20 02:30:00,40.6,36.7,29.73,SSW,202,0.0,0.0,86,0.00,,,0.00,WUHU21623XXSP,2013-01-20 07:30:00,
2013-01-20 02:35:00,40.6,36.7,29.73,SSW,202,0.0,0.0,86,0.00,,,0.00,WUHU21623XXSP,2013-01-20 07:35:00,
2013-01-20 02:40:00,40.5,36.6,29.73,SSW,202,0.0,0.0,86,0.00,,,0.00,WUHU21623XXSP,2013-01-20 07:40:00,
2013-01-20 02:45:00,40.3,36.4,29.73,SSW,202,0.0,0.0,86,0.00,,,0.00,WUHU21623XXSP,2013-01-20 07:45:00,
2013-01-20 02:50:00,40.1,36.2,29.73,SSW,202,0.0,0.0,86,0.00,,,0.00,WUHU21623XXSP,2013-01-20 07:50:00,
2013-01-20 02:55:00,40.1,36.5,29.72,SSW,202,0.0,0.0,87,0.00,,,0.00,WUHU21623XXSP,2013-01-20 07:55:00,
2013-01-20 03:00:00,40.1,36.5,29.72,SSW,202,0.0,0.0,87,0.00,,,0.00,WUHU21623XXSP,2013-01-20 08:00:00,
2013-01-20 03:05:00,40.1,36.5,29.72,SSW,202,0.0,0.0,87,0.00,,,0.00,WUHU21623XXSP,2013-01-20 08:05:00,
2013-01-20 03:10:00,39.9,36.3,29.73,SSW,202,0.0,0.0,87,0.00,,,0.00,WUHU21623XXSP,2013-01-20 08:10:00,
2013-01-20 03:15:00,39.9,36.3,29.73,SSW,202,0.0,0.0,87,0.00,,,0.00,WUHU21623XXSP,2013-01-20 08:15:00,
2013-01-20 03:20:00,39.7,36.2,29.73,SSW,202,0.0,0.0,87,0.00,,,0.00,WUHU21623XXSP,2013-01-20 08:20:00,
2013-01-20 03:25:00,39.7,36.2,29.73,SSW,202,0.0,0.0,87,0.00,,,0.00,WUHU21623XXSP,2013-01-20 08:25:00,
2013-01-20 03:30:00,39.6,36.0,29.73,SSW,202,0.0,0.0,87,0.00,,,0.00,WUHU21623XXSP,2013-01-20 08:30:00,
2013-01-20 03:35:00,39.4,35.8,29.73,SSW,202,0.0,0.0,87,0.00,,,0.00,WUHU21623XXSP,2013-01-20 08:35:00,
2013-01-20 03:40:00,39.4,35.8,29.72,SSW,202,0.0,0.0,87,0.00,,,0.00,WUHU21623XXSP,2013-01-20 08:40:00,
2013-01-20 03:45:00,39.4,35.8,29.72,SSW,202,0.0,0.0,87,0.00,,,0.00,WUHU21623XXSP,2013-01-20 08:45:00,
2013-01-20 03:50:00,39.4,35.8,29.72,SSW,202,0.0,0.0,87,0.00,,,0.00,WUHU21623XXSP,2013-01-20 08:50:00,
2013-01-20 03:55:00,39.0,35.5,29.72,SSW,202,0.0,0.0,87,0.00,,,0.00,WUHU21623XXSP,2013-01-20 08:55:00,
2013-01-20 04:00:00,38.8,35.6,29.72,SSW,202,0.0,0.0,88,0.00,,,0.00,WUHU21623XXSP,2013-01-20 09:00:00,
2013-01-20 04:05:00,38.8,35.6,29.73,SSW,202,0.0,0.0,88,0.00,,,0.00,WUHU21623XXSP,2013-01-20 09:05:00,
2013-01-20 04:10:00,38.7,35.4,29.72,SSW,202,0.0,0.0,88,0.00,,,0.00,WUHU21623XXSP,2013-01-20 09:10:00,
2013-01-20 04:15:00,38.7,35.7,29.72,SSW,202,0.0,0.0,89,0.00,,,0.00,WUHU21623XXSP,2013-01-20 09:15:00,
2013-01-20 04:20:00,38.7,35.7,29.72,SSW,202,0.0,0.0,89,0.00,,,0.00,WUHU21623XXSP,2013-01-20 09:20:00,
2013-01-20 04:25:00,38.8,35.9,29.72,SSW,202,0.0,0.0,89,0.00,,,0.00,WUHU21623XXSP,2013-01-20 09:25:00,
2013-01-20 04:30:00,38.8,35.9,29.72,SSW,202,0.0,0.0,89,0.00,,,0.00,WUHU21623XXSP,2013-01-20 09:30:00,
2013-01-20 04:35:00,39.0,36.0,29.72,SSW,202,0.0,0.0,89,0.00,,,0.00,WUHU21623XXSP,2013-01-20 09:35:00,
2013-01-20 04:40:00,39.0,36.0,29.72,SSW,202,0.0,0.0,89,0.00,,,0.00,WUHU21623XXSP,2013-01-20 09:40:00,
2013-01-20 04:45:00,39.4,36.4,29.72,SSW,202,0.0,0.0,89,0.00,,,0.00,WUHU21623XXSP,2013-01-20 09:45:00,
2013-01-20 04:50:00,39.4,36.4,29.72,SSW,202,0.0,0.0,89,0.00,,,0.00,WUHU21623XXSP,2013-01-20 09:50:00,
2013-01-20 04:55:00,39.7,36.7,29.72,SSW,202,0.0,0.0,89,0.00,,,0.00,WUHU21623XXSP,2013-01-20 09:55:00,
2013-01-20 05:00:00,39.9,36.9,29.72,SSW,202,0.0,0.0,89,0.00,,,0.00,WUHU21623XXSP,2013-01-20 10:00:00,
2013-01-20 05:05:00,39.9,36.9,29.72,SSW,202,0.0,0.0,89,0.00,,,0.00,WUHU21623XXSP,2013-01-20 10:05:00,
2013-01-20 05:10:00,40.1,36.8,29.72,SSW,202,0.0,0.0,88,0.00,,,0.00,WUHU21623XXSP,2013-01-20 10:10:00,
2013-01-20 05:15:00,40.1,36.8,29.72,SSW,202,0.0,0.0,88,0.00,,,0.00,WUHU21623XXSP,2013-01-20 10:15:00,
2013-01-20 05:20:00,39.9,36.6,29.72,SSW,202,0.0,0.0,88,0.00,,,0.00,WUHU21623XXSP,2013-01-20 10:20:00,
2013-01-20 05:25:00,39.4,36.1,29.72,SSW,202,0.0,0.0,88,0.00,,,0.00,WUHU21623XXSP,2013-01-20 10:25:00,
2013-01-20 05:30:00,39.4,36.1,29.73,SSW,202,0.0,0.0,88,0.00,,,0.00,WUHU21623XXSP,2013-01-20 10:30:00,
2013-01-20 05:35:00,39.0,35.7,29.73,SSW,202,0.0,0.0,88,0.00,,,0.00,WUHU21623XXSP,2013-01-20 10:35:00,
2013-01-20 05:40:00,38.8,35.6,29.72,SSW,202,0.0,0.0,88,0.00,,,0.00,WUHU21623XXSP,2013-01-20 10:40:00,
2013-01-20 05:45:00,38.8,35.6,29.72,SSW,202,0.0,0.0,88,0.00,,,0.00,WUHU21623XXSP,2013-01-20 10:45:00,
2013-01-20 05:51:00,38.7,35.4,29.73,SSW,202,0.0,0.0,88,0.00,,,0.00,WUHU21623XXSP,2013-01-20 10:51:00,
2013-01-20 05:56:00,38.3,35.0,29.72,SSW,202,0.0,0.0,88,0.00,,,0.00,WUHU21623XXSP,2013-01-20 10:56:00,
2013-01-20 06:01:00,38.1,34.8,29.72,SSW,202,0.0,0.0,88,0.00,,,0.00,WUHU21623XXSP,2013-01-20 11:01:00,
2013-01-20 06:06:00,37.9,34.7,29.73,SSW,202,0.0,0.0,88,0.00,,,0.00,WUHU21623XXSP,2013-01-20 11:06:00,
2013-01-20 06:11:00,37.8,34.5,29.73,SSW,202,0.0,0.0,88,0.00,,,0.00,WUHU21623XXSP,2013-01-20 11:11:00,
2013-01-20 06:16:00,37.4,34.1,29.73,SSW,202,0.0,0.0,88,0.00,,,0.00,WUHU21623XXSP,2013-01-20 11:16:00,
2013-01-20 06:21:00,37.4,34.1,29.72,SSW,202,0.0,0.0,88,0.00,,,0.00,WUHU21623XXSP,2013-01-20 11:21:00,
2013-01-20 06:26:00,37.2,33.9,29.73,SSW,202,0.0,0.0,88,0.00,,,0.00,WUHU21623XXSP,2013-01-20 11:26:00,
2013-01-20 06:31:00,37.0,33.8,29.73,SSW,202,0.0,0.0,88,0.00,,,0.00,WUHU21623XXSP,2013-01-20 11:31:00,
2013-01-20 06:36:00,37.0,33.8,29.73,SSW,202,0.0,0.0,88,0.00,,,0.00,WUHU21623XXSP,2013-01-20 11:36:00,
2013-01-20 06:41:00,37.0,33.8,29.73,SSW,202,0.0,0.0,88,0.00,,,0.00,WUHU21623XXSP,2013-01-20 11:41:00,
2013-01-20 06:46:00,37.0,33.8,29.73,SSW,202,0.0,0.0,88,0.00,,,0.00,WUHU21623XXSP,2013-01-20 11:46:00,
2013-01-20 06:51:00,36.9,33.6,29.73,SSW,202,0.0,0.0,88,0.00,,,0.00,WUHU21623XXSP,2013-01-20 11:51:00,
2013-01-20 06:56:00,36.7,33.4,29.73,SSW,202,0.0,0.0,88,0.00,,,0.00,WUHU21623XXSP,2013-01-20 11:56:00,
2013-01-20 07:01:00,36.5,33.2,29.73,SSW,202,0.0,0.0,88,0.00,,,0.00,WUHU21623XXSP,2013-01-20 12:01:00,
2013-01-20 07:06:00,36.3,33.0,29.73,SSW,202,0.0,0.0,88,0.00,,,0.00,WUHU21623XXSP,2013-01-20 12:06:00,
2013-01-20 07:11:00,36.5,33.2,29.73,SSW,202,0.0,0.0,88,0.00,,,0.00,WUHU21623XXSP,2013-01-20 12:11:00,
2013-01-20 07:16:00,36.5,33.2,29.73,SSW,202,0.0,0.0,88,0.00,,,0.00,WUHU21623XXSP,2013-01-20 12:16:00,
2013-01-20 07:21:00,36.7,33.4,29.73,SSW,202,0.0,0.0,88,0.00,,,0.00,WUHU21623XXSP,2013-01-20 12:21:00,
2013-01-20 07:26:00,36.5,33.2,29.73,SSW,202,0.0,0.0,88,0.00,,,0.00,WUHU21623XXSP,2013-01-20 12:26:00,
2013-01-20 07:31:00,36.3,33.0,29.73,SSW,202,0.0,0.0,88,0.00,,,0.00,WUHU21623XXSP,2013-01-20 12:31:00,
2013-01-20 07:36:00,36.1,32.9,29.73,SSW,202,0.0,0.0,88,0.00,,,0.00,WUHU21623XXSP,2013-01-20 12:36:00,
2013-01-20 07:41:00,36.1,33.2,29.73,SSW,202,0.0,0.0,89,0.00,,,0.00,WUHU21623XXSP,2013-01-20 12:41:00,
2013-01-20 07:46:00,36.1,32.9,29.73,SSW,202,0.0,0.0,88,0.00,,,0.00,WUHU21623XXSP,2013-01-20 12:46:00,
2013-01-20 07:52:00,36.1,33.2,29.73,SSW,202,0.0,0.0,89,0.00,,,0.00,WUHU21623XXSP,2013-01-20 12:52:00,
2013-01-20 07:57:00,36.3,33.3,29.73,SSW,202,0.0,0.0,89,0.00,,,0.00,WUHU21623XXSP,2013-01-20 12:57:00,
2013-01-20 08:02:00,36.7,33.7,29.73,SSW,202,0.0,0.0,89,0.00,,,0.00,WUHU21623XXSP,2013-01-20 13:02:00,
2013-01-20 08:07:00,37.2,34.2,29.73,SSW,202,0.0,0.0,89,0.00,,,0.00,WUHU21623XXSP,2013-01-20 13:07:00,
2013-01-20 08:12:00,38.1,35.1,29.73,SSW,202,0.0,0.0,89,0.00,,,0.00,WUHU21623XXSP,2013-01-20 13:12:00,
2013-01-20 08:17:00,38.8,35.6,29.73,SSW,202,0.0,0.0,88,0.00,,,0.00,WUHU21623XXSP,2013-01-20 13:17:00,
2013-01-20 08:22:00,39.4,35.8,29.73,SSW,202,0.0,0.0,87,0.00,,,0.00,WUHU21623XXSP,2013-01-20 13:22:00,
2013-01-20 08:27:00,40.1,36.5,29.73,SSW,202,0.0,0.0,87,0.00,,,0.00,WUHU21623XXSP,2013-01-20 13:27:00,
2013-01-20 08:32:00,41.0,36.8,29.73,SSW,202,0.0,0.0,85,0.00,,,0.00,WUHU21623XXSP,2013-01-20 13:32:00,
2013-01-20 08:37:00,41.9,37.4,29.73,SSW,202,0.0,0.0,84,0.00,,,0.00,WUHU21623XXSP,2013-01-20 13:37:00,
2013-01-20 08:42:00,43.9,39.0,29.73,WSW,247,0.0,0.0,83,0.00,,,0.00,WUHU21623XXSP,2013-01-20 13:42:00,
2013-01-20 08:47:00,46.0,39.6,29.73,West,270,0.0,0.0,78,0.00,,,0.00,WUHU21623XXSP,2013-01-20 13:47:00,
2013-01-20 08:52:00,48.4,40.0,29.73,West,270,0.0,0.0,73,0.00,,,0.00,WUHU21623XXSP,2013-01-20 13:52:00,
2013-01-20 08:57:00,49.6,40.6,29.73,West,270,0.0,0.0,71,0.00,,,0.00,WUHU21623XXSP,2013-01-20 13:57:00,
2013-01-20 09:02:00,51.4,40.8,29.73,West,270,0.0,0.0,67,0.00,,,0.00,WUHU21623XXSP,2013-01-20 14:02:00,
2013-01-20 09:07:00,52.5,41.1,29.73,WNW,292,0.0,0.0,65,0.00,,,0.00,WUHU21623XXSP,2013-01-20 14:07:00,
2013-01-20 09:12:00,53.8,41.1,29.73,SE,135,0.0,0.0,62,0.00,,,0.00,WUHU21623XXSP,2013-01-20 14:12:00,
2013-01-20 09:17:00,54.3,40.7,29.73,East,90,0.0,0.0,60,0.00,,,0.00,WUHU21623XXSP,2013-01-20 14:17:00,
2013-01-20 09:22:00,55.2,40.6,29.73,ENE,67,0.0,0.0,58,0.00,,,0.00,WUHU21623XXSP,2013-01-20 14:22:00,
2013-01-20 09:28:00,55.8,41.1,29.73,NE,45,0.0,0.0,58,0.00,,,0.00,WUHU21623XXSP,2013-01-20 14:28:00,
2013-01-20 09:33:00,56.5,40.9,29.73,NNW,337,0.0,0.0,56,0.00,,,0.00,WUHU21623XXSP,2013-01-20 14:33:00,
2013-01-20 09:38:00,57.2,41.2,29.73,NNW,337,0.0,0.0,55,0.00,,,0.00,WUHU21623XXSP,2013-01-20 14:38:00,
2013-01-20 09:43:00,57.0,41.5,29.74,NNW,337,0.0,0.0,56,0.00,,,0.00,WUHU21623XXSP,2013-01-20 14:43:00,
2013-01-20 09:48:00,56.1,40.6,29.73,NNW,337,0.0,0.0,56,0.00,,,0.00,WUHU21623XXSP,2013-01-20 14:48:00,
2013-01-20 09:53:00,56.1,40.6,29.73,NW,315,0.0,0.0,56,0.00,,,0.00,WUHU21623XXSP,2013-01-20 14:53:00,
2013-01-20 09:58:00,57.0,40.5,29.73,NW,315,0.0,0.0,54,0.00,,,0.00,WUHU21623XXSP,2013-01-20 14:58:00,
2013-01-20 10:04:00,57.9,40.9,29.73,NW,315,0.0,0.0,53,0.00,,,0.00,WUHU21623XXSP,2013-01-20 15:04:00,
2013-01-20 10:09:00,58.6,41.1,29.73,NW,315,1.8,4.9,52,0.00,,,0.00,WUHU21623XXSP,2013-01-20 15:09:00,
2013-01-20 10:15:00,59.4,41.7,29.73,NW,315,0.0,4.9,52,0.00,,,0.00,WUHU21623XXSP,2013-01-20 15:15:00,
2013-01-20 10:20:00,60.1,41.4,29.73,NNW,337,2.0,2.5,50,0.00,,,0.00,WUHU21623XXSP,2013-01-20 15:20:00,
2013-01-20 10:25:00,60.4,41.2,29.73,NNW,337,0.0,3.8,49,0.00,,,0.00,WUHU21623XXSP,2013-01-20 15:25:00,
2013-01-20 10:30:00,61.2,41.8,29.73,NNW,337,0.0,4.0,49,0.00,,,0.00,WUHU21623XXSP,2013-01-20 15:30:00,
2013-01-20 10:35:00,62.4,41.8,29.73,NNW,337,0.0,4.0,47,0.00,,,0.00,WUHU21623XXSP,2013-01-20 15:35:00,
2013-01-20 10:40:00,63.1,42.5,29.73,NW,315,0.0,4.0,47,0.00,,,0.00,WUHU21623XXSP,2013-01-20 15:40:00,
2013-01-20 10:45:00,64.0,42.7,29.73,NW,315,0.0,0.0,46,0.00,,,0.00,WUHU21623XXSP,2013-01-20 15:45:00,
2013-01-20 10:50:00,64.9,42.9,29.73,NNW,337,0.0,0.0,45,0.00,,,0.00,WUHU21623XXSP,2013-01-20 15:50:00,
2013-01-20 10:56:00,65.5,42.3,29.73,North,0,0.0,2.2,43,0.00,,,0.00,WUHU21623XXSP,2013-01-20 15:56:00,
2013-01-20 11:01:00,66.4,43.1,29.72,NW,315,0.0,2.2,43,0.00,,,0.00,WUHU21623XXSP,2013-01-20 16:01:00,
2013-01-20 11:06:00,67.1,43.2,29.73,WNW,292,0.0,0.0,42,0.00,,,0.00,WUHU21623XXSP,2013-01-20 16:06:00,
2013-01-20 11:11:00,67.8,43.2,29.72,NNW,337,0.0,3.1,41,0.00,,,0.00,WUHU21623XXSP,2013-01-20 16:11:00,
2013-01-20 11:16:00,68.7,43.4,29.72,West,270,0.0,3.4,40,0.00,,,0.00,WUHU21623XXSP,2013-01-20 16:16:00,
2013-01-20 11:21:00,69.3,42.5,29.71,North,0,0.0,3.4,38,0.00,,,0.00,WUHU21623XXSP,2013-01-20 16:21:00,
2013-01-20 11:26:00,70.0,42.4,29.71,North,0,0.0,4.3,37,0.00,,,0.00,WUHU21623XXSP,2013-01-20 16:26:00,
2013-01-20 11:31:00,70.3,42.7,29.71,North,0,0.0,4.3,37,0.00,,,0.00,WUHU21623XXSP,2013-01-20 16:31:00,
2013-01-20 11:36:00,71.2,43.7,29.71,North,0,0.0,4.0,37,0.00,,,0.00,WUHU21623XXSP,2013-01-20 16:36:00,
2013-01-20 11:41:00,72.7,44.8,29.71,North,0,0.0,0.0,37,0.00,,,0.00,WUHU21623XXSP,2013-01-20 16:41:00,
2013-01-20 11:46:00,73.4,43.9,29.70,NNW,337,0.0,2.0,35,0.00,,,0.00,WUHU21623XXSP,2013-01-20 16:46:00,
2013-01-20 11:51:00,74.5,44.1,29.70,NNW,337,0.0,2.0,34,0.00,,,0.00,WUHU21623XXSP,2013-01-20 16:51:00,
2013-01-20 11:56:00,75.0,43.8,29.70,NNW,337,2.2,4.0,33,0.00,,,0.00,WUHU21623XXSP,2013-01-20 16:56:00,
2013-01-20 12:01:00,75.0,44.6,29.69,North,0,0.0,4.0,34,0.00,,,0.00,WUHU21623XXSP,2013-01-20 17:01:00,
2013-01-20 12:06:00,76.8,44.7,29.69,NW,315,0.0,2.2,32,0.00,,,0.00,WUHU21623XXSP,2013-01-20 17:06:00,
2013-01-20 12:11:00,77.2,45.0,29.68,NW,315,0.0,0.0,32,0.00,,,0.00,WUHU21623XXSP,2013-01-20 17:11:00,
2013-01-20 12:16:00,77.9,44.8,29.68,NNW,337,0.0,0.0,31,0.00,,,0.00,WUHU21623XXSP,2013-01-20 17:16:00,
2013-01-20 12:21:00,78.6,45.4,29.68,West,270,0.0,0.0,31,0.00,,,0.00,WUHU21623XXSP,2013-01-20 17:21:00,
2013-01-20 12:26:00,79.0,45.7,29.68,NNW,337,0.0,0.0,31,0.00,,,0.00,WUHU21623XXSP,2013-01-20 17:26:00,
2013-01-20 12:31:00,78.6,44.6,29.68,NNW,337,0.0,0.0,30,0.00,,,0.00,WUHU21623XXSP,2013-01-20 17:31:00,
2013-01-20 12:37:00,79.0,44.9,29.67,NW,315,0.0,4.0,30,0.00,,,0.00,WUHU21623XXSP,2013-01-20 17:37:00,
2013-01-20 12:43:00,80.4,45.2,29.67,NW,315,0.0,0.0,29,0.00,,,0.00,WUHU21623XXSP,2013-01-20 17:43:00,
2013-01-20 12:48:00,81.1,45.8,29.67,NW,315,0.0,0.0,29,0.00,,,0.00,WUHU21623XXSP,2013-01-20 17:48:00,
2013-01-20 12:53:00,82.0,46.5,29.66,NW,315,0.0,0.0,29,0.00,,,0.00,WUHU21623XXSP,2013-01-20 17:53:00,
2013-01-20 12:58:00,83.8,47.0,29.65,NW,315,0.0,0.0,28,0.00,,,0.00,WUHU21623XXSP,2013-01-20 17:58:00,
2013-01-20 13:03:00,84.0,46.1,29.65,WSW,247,0.0,0.0,27,0.00,,,0.00,WUHU21623XXSP,2013-01-20 18:03:00,
2013-01-20 13:08:00,83.1,45.3,29.65,WSW,247,0.0,3.1,27,0.00,,,0.00,WUHU21623XXSP,2013-01-20 18:08:00,
2013-01-20 13:13:00,83.1,46.4,29.65,WSW,247,0.0,3.1,28,0.00,,,0.00,WUHU21623XXSP,2013-01-20 18:13:00,
2013-01-20 13:18:00,84.0,46.1,29.65,WSW,247,0.0,0.0,27,0.00,,,0.00,WUHU21623XXSP,2013-01-20 18:18:00,
2013-01-20 13:23:00,84.6,45.5,29.64,WSW,247,0.0,5.4,26,0.00,,,0.00,WUHU21623XXSP,2013-01-20 18:23:00,
2013-01-20 13:28:00,83.3,45.5,29.64,WSW,247,0.0,5.4,27,0.00,,,0.00,WUHU21623XXSP,2013-01-20 18:28:00,
2013-01-20 13:33:00,82.9,45.2,29.64,WSW,247,0.0,4.5,27,0.00,,,0.00,WUHU21623XXSP,2013-01-20 18:33:00,
2013-01-20 13:38:00,83.1,45.3,29.63,WSW,247,0.0,0.0,27,0.00,,,0.00,WUHU21623XXSP,2013-01-20 18:38:00,
2013-01-20 13:43:00,82.0,44.4,29.63,WSW,247,0.0,4.3,27,0.00,,,0.00,WUHU21623XXSP,2013-01-20 18:43:00,
2013-01-20 13:48:00,83.1,44.3,29.63,WSW,247,0.0,4.3,26,0.00,,,0.00,WUHU21623XXSP,2013-01-20 18:48:00,
2013-01-20 13:53:00,81.9,44.3,29.63,WSW,247,0.0,4.5,27,0.00,,,0.00,WUHU21623XXSP,2013-01-20 18:53:00,
2013-01-20 13:58:00,82.6,45.9,29.63,WSW,247,0.0,6.0,28,0.00,,,0.00,WUHU21623XXSP,2013-01-20 18:58:00,
2013-01-20 14:03:00,84.9,46.9,29.63,WNW,292,0.0,6.0,27,0.00,,,0.00,WUHU21623XXSP,2013-01-20 19:03:00,
2013-01-20 14:08:00,81.5,44.0,29.63,North,0,0.0,0.0,27,0.00,,,0.00,WUHU21623XXSP,2013-01-20 19:08:00,
2013-01-20 14:13:00,74.3,41.7,29.63,NNW,337,0.0,0.0,31,0.00,,,0.00,WUHU21623XXSP,2013-01-20 19:13:00,
2013-01-20 14:18:00,70.2,39.6,29.62,North,0,1.8,4.7,33,0.00,,,0.00,WUHU21623XXSP,2013-01-20 19:18:00,
2013-01-20 14:23:00,69.8,40.0,29.62,North,0,0.0,4.7,34,0.00,,,0.00,WUHU21623XXSP,2013-01-20 19:23:00,
2013-01-20 14:28:00,68.2,39.3,29.62,North,0,0.0,0.0,35,0.00,,,0.00,WUHU21623XXSP,2013-01-20 19:28:00,
2013-01-20 14:33:00,66.0,38.1,29.62,NNE,22,0.0,7.4,36,0.00,,,0.00,WUHU21623XXSP,2013-01-20 19:33:00,
2013-01-20 14:38:00,66.9,38.9,29.62,NNE,22,0.0,7.4,36,0.00,,,0.00,WUHU21623XXSP,2013-01-20 19:38:00,
2013-01-20 14:43:00,73.6,41.8,29.61,North,0,0.0,4.5,32,0.00,,,0.00,WUHU21623XXSP,2013-01-20 19:43:00,
2013-01-20 14:48:00,76.8,43.2,29.61,WSW,247,0.0,4.5,30,0.00,,,0.00,WUHU21623XXSP,2013-01-20 19:48:00,
2013-01-20 14:53:00,80.4,45.2,29.61,WSW,247,0.0,3.4,29,0.00,,,0.00,WUHU21623XXSP,2013-01-20 19:53:00,
2013-01-20 14:59:00,82.2,44.6,29.61,WSW,247,0.0,0.0,27,0.00,,,0.00,WUHU21623XXSP,2013-01-20 19:59:00,
2013-01-20 15:04:00,82.6,43.8,29.61,WSW,247,4.9,4.9,26,0.00,,,0.00,WUHU21623XXSP,2013-01-20 20:04:00,
2013-01-20 15:09:00,81.9,43.2,29.61,WSW,247,0.0,4.9,26,0.00,,,0.00,WUHU21623XXSP,2013-01-20 20:09:00,
2013-01-20 15:14:00,80.8,43.4,29.61,WSW,247,0.0,8.9,27,0.00,,,0.00,WUHU21623XXSP,2013-01-20 20:14:00,
2013-01-20 15:19:00,81.0,43.6,29.61,WSW,247,0.0,8.9,27,0.00,,,0.00,WUHU21623XXSP,2013-01-20 20:19:00,
2013-01-20 15:24:00,82.2,44.6,29.61,WSW,247,0.0,0.0,27,0.00,,,0.00,WUHU21623XXSP,2013-01-20 20:24:00,
2013-01-20 15:29:00,82.9,45.2,29.61,WSW,247,0.0,0.0,27,0.00,,,0.00,WUHU21623XXSP,2013-01-20 20:29:00,
2013-01-20 15:34:00,83.8,44.9,29.61,WSW,247,0.0,0.0,26,0.00,,,0.00,WUHU21623XXSP,2013-01-20 20:34:00,
2013-01-20 15:39:00,84.0,45.0,29.61,WSW,247,0.0,0.0,26,0.00,,,0.00,WUHU21623XXSP,2013-01-20 20:39:00,
2013-01-20 15:44:00,82.6,43.8,29.61,WSW,247,2.9,4.9,26,0.00,,,0.00,WUHU21623XXSP,2013-01-20 20:44:00,
2013-01-20 15:49:00,80.1,42.8,29.61,North,0,0.0,4.9,27,0.00,,,0.00,WUHU21623XXSP,2013-01-20 20:49:00,
2013-01-20 15:54:00,77.7,41.8,29.61,North,0,0.0,2.9,28,0.00,,,0.00,WUHU21623XXSP,2013-01-20 20:54:00,
2013-01-20 15:59:00,76.5,41.8,29.61,WSW,247,0.0,0.0,29,0.00,,,0.00,WUHU21623XXSP,2013-01-20 20:59:00,
2013-01-20 16:04:00,76.8,42.1,29.61,WSW,247,0.0,0.0,29,0.00,,,0.00,WUHU21623XXSP,2013-01-20 21:04:00,
2013-01-20 16:09:00,76.8,42.1,29.61,North,0,0.0,3.6,29,0.00,,,0.00,WUHU21623XXSP,2013-01-20 21:09:00,
2013-01-20 16:14:00,72.9,40.4,29.62,North,0,0.0,3.6,31,0.00,,,0.00,WUHU21623XXSP,2013-01-20 21:14:00,
2013-01-20 16:19:00,68.5,38.1,29.61,NW,315,0.0,0.0,33,0.00,,,0.00,WUHU21623XXSP,2013-01-20 21:19:00,
2013-01-20 16:24:00,66.0,37.4,29.61,NW,315,0.0,0.0,35,0.00,,,0.00,WUHU21623XXSP,2013-01-20 21:24:00,
2013-01-20 16:29:00,64.2,36.5,29.61,NW,315,0.0,0.0,36,0.00,,,0.00,WUHU21623XXSP,2013-01-20 21:29:00,
2013-01-20 16:34:00,62.8,36.7,29.61,NW,315,0.0,0.0,38,0.00,,,0.00,WUHU21623XXSP,2013-01-20 21:34:00,
2013-01-20 16:39:00,61.9,36.6,29.61,NW,315,0.0,0.0,39,0.00,,,0.00,WUHU21623XXSP,2013-01-20 21:39:00,
2013-01-20 16:44:00,61.3,36.8,29.61,NW,315,0.0,0.0,40,0.00,,,0.00,WUHU21623XXSP,2013-01-20 21:44:00,
2013-01-20 16:49:00,61.0,37.1,29.61,NNW,337,0.0,0.0,41,0.00,,,0.00,WUHU21623XXSP,2013-01-20 21:49:00,
2013-01-20 16:54:00,60.6,36.7,29.62,NNW,337,0.0,0.0,41,0.00,,,0.00,WUHU21623XXSP,2013-01-20 21:54:00,
2013-01-20 16:59:00,60.1,36.8,29.61,NNW,337,0.0,0.0,42,0.00,,,0.00,WUHU21623XXSP,2013-01-20 21:59:00,
2013-01-20 17:04:00,59.7,37.1,29.61,NNW,337,0.0,0.0,43,0.00,,,0.00,WUHU21623XXSP,2013-01-20 22:04:00,
2013-01-20 17:09:00,59.2,36.6,29.61,NNW,337,0.0,0.0,43,0.00,,,0.00,WUHU21623XXSP,2013-01-20 22:09:00,
2013-01-20 17:14:00,58.8,36.8,29.61,NNW,337,0.0,0.0,44,0.00,,,0.00,WUHU21623XXSP,2013-01-20 22:14:00,
2013-01-20 17:19:00,58.8,37.4,29.61,NNW,337,0.0,0.0,45,0.00,,,0.00,WUHU21623XXSP,2013-01-20 22:19:00,
2013-01-20 17:24:00,58.3,36.9,29.61,NNW,337,0.0,0.0,45,0.00,,,0.00,WUHU21623XXSP,2013-01-20 22:24:00,
2013-01-20 17:29:00,57.9,36.6,29.62,NNW,337,0.0,0.0,45,0.00,,,0.00,WUHU21623XXSP,2013-01-20 22:29:00,
2013-01-20 17:34:00,57.4,36.1,29.62,NNW,337,0.0,0.0,45,0.00,,,0.00,WUHU21623XXSP,2013-01-20 22:34:00,
2013-01-20 17:39:00,57.0,36.4,29.62,NNW,337,0.0,0.0,46,0.00,,,0.00,WUHU21623XXSP,2013-01-20 22:39:00,
2013-01-20 17:44:00,55.9,35.9,29.61,NNW,337,0.0,0.0,47,0.00,,,0.00,WUHU21623XXSP,2013-01-20 22:44:00,
2013-01-20 17:49:00,55.2,35.8,29.61,NNW,337,0.0,0.0,48,0.00,,,0.00,WUHU21623XXSP,2013-01-20 22:49:00,
2013-01-20 17:54:00,54.3,35.5,29.61,NNW,337,0.0,0.0,49,0.00,,,0.00,WUHU21623XXSP,2013-01-20 22:54:00,
2013-01-20 17:59:00,53.6,35.9,29.61,NNW,337,0.0,0.0,51,0.00,,,0.00,WUHU21623XXSP,2013-01-20 22:59:00,
2013-01-20 18:04:00,53.2,35.5,29.61,NNW,337,0.0,0.0,51,0.00,,,0.00,WUHU21623XXSP,2013-01-20 23:04:00,
2013-01-20 18:09:00,52.5,35.3,29.61,NNW,337,0.0,0.0,52,0.00,,,0.00,WUHU21623XXSP,2013-01-20 23:09:00,
2013-01-20 18:14:00,52.0,34.9,29.61,NNW,337,0.0,0.0,52,0.00,,,0.00,WUHU21623XXSP,2013-01-20 23:14:00,
2013-01-20 18:19:00,51.6,35.0,29.61,NNW,337,0.0,0.0,53,0.00,,,0.00,WUHU21623XXSP,2013-01-20 23:19:00,
2013-01-20 18:24:00,51.3,35.1,29.61,NNW,337,0.0,0.0,54,0.00,,,0.00,WUHU21623XXSP,2013-01-20 23:24:00,
2013-01-20 18:29:00,51.1,35.0,29.61,NNW,337,0.0,0.0,54,0.00,,,0.00,WUHU21623XXSP,2013-01-20 23:29:00,
2013-01-20 18:35:00,50.5,34.9,29.61,NNW,337,0.0,0.0,55,0.00,,,0.00,WUHU21623XXSP,2013-01-20 23:35:00,
2013-01-20 18:40:00,50.2,34.6,29.62,NNW,337,0.0,0.0,55,0.00,,,0.00,WUHU21623XXSP,2013-01-20 23:40:00,
2013-01-20 18:45:00,49.8,34.3,29.62,NNW,337,0.0,0.0,55,0.00,,,0.00,WUHU21623XXSP,2013-01-20 23:45:00,
2013-01-20 18:50:00,49.6,34.5,29.62,NNW,337,0.0,0.0,56,0.00,,,0.00,WUHU21623XXSP,2013-01-20 23:50:00,
2013-01-20 18:55:00,49.3,34.6,29.62,NNW,337,0.0,0.0,57,0.00,,,0.00,WUHU21623XXSP,2013-01-20 23:55:00,
2013-01-20 19:00:00,49.1,34.5,29.62,NNW,337,0.0,0.0,57,0.00,,,0.00,WUHU21623XXSP,2013-01-21 00:00:00,
2013-01-20 19:05:00,48.9,34.8,29.62,NNW,337,0.0,0.0,58,0.00,,,0.00,WUHU21623XXSP,2013-01-21 00:05:00,
2013-01-20 19:10:00,48.7,34.6,29.62,NNW,337,0.0,0.0,58,0.00,,,0.00,WUHU21623XXSP,2013-01-21 00:10:00,
2013-01-20 19:15:00,48.4,34.3,29.62,NNW,337,0.0,0.0,58,0.00,,,0.00,WUHU21623XXSP,2013-01-21 00:15:00,
2013-01-20 19:20:00,48.2,34.1,29.62,NNW,337,0.0,0.0,58,0.00,,,0.00,WUHU21623XXSP,2013-01-21 00:20:00,
2013-01-20 19:25:00,48.0,34.4,29.62,NNW,337,0.0,0.0,59,0.00,,,0.00,WUHU21623XXSP,2013-01-21 00:25:00,
2013-01-20 19:30:00,47.7,34.1,29.62,NNW,337,0.0,0.0,59,0.00,,,0.00,WUHU21623XXSP,2013-01-21 00:30:00,
2013-01-20 19:35:00,47.5,34.3,29.62,NNW,337,0.0,0.0,60,0.00,,,0.00,WUHU21623XXSP,2013-01-21 00:35:00,
2013-01-20 19:40:00,47.5,34.3,29.62,NNW,337,0.0,0.0,60,0.00,,,0.00,WUHU21623XXSP,2013-01-21 00:40:00,
2013-01-20 19:45:00,47.3,34.5,29.62,NNW,337,0.0,0.0,61,0.00,,,0.00,WUHU21623XXSP,2013-01-21 00:45:00,
2013-01-20 19:50:00,47.3,34.5,29.62,NNW,337,0.0,0.0,61,0.00,,,0.00,WUHU21623XXSP,2013-01-21 00:50:00,
2013-01-20 19:55:00,47.1,34.4,29.62,NNW,337,0.0,0.0,61,0.00,,,0.00,WUHU21623XXSP,2013-01-21 00:55:00,
2013-01-20 20:00:00,46.9,34.2,29.63,NNW,337,0.0,0.0,61,0.00,,,0.00,WUHU21623XXSP,2013-01-21 01:00:00,
2013-01-20 20:05:00,46.8,34.4,29.63,NNW,337,0.0,0.0,62,0.00,,,0.00,WUHU21623XXSP,2013-01-21 01:05:00,
2013-01-20 20:10:00,46.6,34.2,29.62,NNW,337,0.0,0.0,62,0.00,,,0.00,WUHU21623XXSP,2013-01-21 01:10:00,
2013-01-20 20:15:00,46.6,34.6,29.62,NNW,337,0.0,0.0,63,0.00,,,0.00,WUHU21623XXSP,2013-01-21 01:15:00,
2013-01-20 20:20:00,46.6,34.6,29.63,NNW,337,0.0,0.0,63,0.00,,,0.00,WUHU21623XXSP,2013-01-21 01:20:00,
2013-01-20 20:25:00,46.6,34.6,29.63,NNW,337,0.0,0.0,63,0.00,,,0.00,WUHU21623XXSP,2013-01-21 01:25:00,
2013-01-20 20:30:00,46.6,34.6,29.63,NNW,337,0.0,0.0,63,0.00,,,0.00,WUHU21623XXSP,2013-01-21 01:30:00,
2013-01-20 20:35:00,46.2,34.3,29.63,NNW,337,0.0,0.0,63,0.00,,,0.00,WUHU21623XXSP,2013-01-21 01:35:00,
2013-01-20 20:40:00,46.2,34.3,29.63,NNW,337,0.0,0.0,63,0.00,,,0.00,WUHU21623XXSP,2013-01-21 01:40:00,
2013-01-20 20:45:00,46.0,34.5,29.63,NNW,337,0.0,0.0,64,0.00,,,0.00,WUHU21623XXSP,2013-01-21 01:45:00,
2013-01-20 20:50:00,45.9,34.3,29.63,NNW,337,0.0,0.0,64,0.00,,,0.00,WUHU21623XXSP,2013-01-21 01:50:00,
2013-01-20 20:55:00,45.7,34.2,29.63,NNW,337,0.0,0.0,64,0.00,,,0.00,WUHU21623XXSP,2013-01-21 01:55:00,
2013-01-20 21:00:00,45.7,34.2,29.63,NNW,337,0.0,0.0,64,0.00,,,0.00,WUHU21623XXSP,2013-01-21 02:00:00,
2013-01-20 21:05:00,45.7,34.2,29.64,NNW,337,0.0,0.0,64,0.00,,,0.00,WUHU21623XXSP,2013-01-21 02:05:00,
2013-01-20 21:10:00,45.5,34.0,29.64,NNW,337,0.0,0.0,64,0.00,,,0.00,WUHU21623XXSP,2013-01-21 02:10:00,
2013-01-20 21:15:00,45.7,34.2,29.64,NNW,337,0.0,0.0,64,0.00,,,0.00,WUHU21623XXSP,2013-01-21 02:15:00,
2013-01-20 21:20:00,45.5,34.4,29.63,NNW,337,0.0,0.0,65,0.00,,,0.00,WUHU21623XXSP,2013-01-21 02:20:00,
2013-01-20 21:25:00,45.3,34.2,29.64,NNW,337,0.0,0.0,65,0.00,,,0.00,WUHU21623XXSP,2013-01-21 02:25:00,
2013-01-20 21:30:00,45.1,34.4,29.64,NNW,337,0.0,0.0,66,0.00,,,0.00,WUHU21623XXSP,2013-01-21 02:30:00,
2013-01-20 21:35:00,45.1,34.4,29.64,NNW,337,0.0,0.0,66,0.00,,,0.00,WUHU21623XXSP,2013-01-21 02:35:00,
2013-01-20 21:40:00,45.0,34.6,29.64,NNW,337,0.0,0.0,67,0.00,,,0.00,WUHU21623XXSP,2013-01-21 02:40:00,
2013-01-20 21:45:00,45.0,34.6,29.64,NNW,337,0.0,0.0,67,0.00,,,0.00,WUHU21623XXSP,2013-01-21 02:45:00,
2013-01-20 21:50:00,45.0,34.6,29.64,NNW,337,0.0,0.0,67,0.00,,,0.00,WUHU21623XXSP,2013-01-21 02:50:00,
2013-01-20 21:55:00,45.0,34.6,29.64,NNW,337,0.0,0.0,67,0.00,,,0.00,WUHU21623XXSP,2013-01-21 02:55:00,
2013-01-20 22:00:00,45.0,35.0,29.64,NNW,337,0.0,0.0,68,0.00,,,0.00,WUHU21623XXSP,2013-01-21 03:00:00,
2013-01-20 22:05:00,44.8,34.8,29.64,NNW,337,0.0,0.0,68,0.00,,,0.00,WUHU21623XXSP,2013-01-21 03:05:00,
2013-01-20 22:10:00,44.8,34.8,29.64,NNW,337,0.0,0.0,68,0.00,,,0.00,WUHU21623XXSP,2013-01-21 03:10:00,
2013-01-20 22:15:00,44.8,34.8,29.64,NNW,337,0.0,0.0,68,0.00,,,0.00,WUHU21623XXSP,2013-01-21 03:15:00,
2013-01-20 22:20:00,45.0,35.0,29.64,NNW,337,0.0,0.0,68,0.00,,,0.00,WUHU21623XXSP,2013-01-21 03:20:00,
2013-01-20 22:25:00,45.0,35.0,29.65,NNW,337,0.0,0.0,68,0.00,,,0.00,WUHU21623XXSP,2013-01-21 03:25:00,
2013-01-20 22:31:00,45.1,35.2,29.65,NNW,337,0.0,0.0,68,0.00,,,0.00,WUHU21623XXSP,2013-01-21 03:31:00,
2013-01-20 22:36:00,45.3,35.4,29.65,NNW,337,0.0,0.0,68,0.00,,,0.00,WUHU21623XXSP,2013-01-21 03:36:00,
2013-01-20 22:41:00,45.7,35.7,29.65,NNW,337,0.0,0.0,68,0.00,,,0.00,WUHU21623XXSP,2013-01-21 03:41:00,
2013-01-20 22:46:00,45.7,35.7,29.65,NNW,337,0.0,0.0,68,0.00,,,0.00,WUHU21623XXSP,2013-01-21 03:46:00,
2013-01-20 22:51:00,45.7,35.3,29.65,NNW,337,0.0,0.0,67,0.00,,,0.00,WUHU21623XXSP,2013-01-21 03:51:00,
2013-01-20 22:56:00,45.3,35.4,29.65,NNW,337,0.0,0.0,68,0.00,,,0.00,WUHU21623XXSP,2013-01-21 03:56:00,
2013-01-20 23:02:00,45.1,35.2,29.64,NNW,337,0.0,0.0,68,0.00,,,0.00,WUHU21623XXSP,2013-01-21 04:02:00,
2013-01-20 23:07:00,45.1,35.2,29.64,NNW,337,0.0,0.0,68,0.00,,,0.00,WUHU21623XXSP,2013-01-21 04:07:00,
2013-01-20 23:12:00,45.1,35.6,29.64,NNW,337,0.0,0.0,69,0.00,,,0.00,WUHU21623XXSP,2013-01-21 04:12:00,
2013-01-20 23:17:00,45.3,35.7,29.64,NNW,337,0.0,0.0,69,0.00,,,0.00,WUHU21623XXSP,2013-01-21 04:17:00,
2013-01-20 23:22:00,45.5,35.9,29.64,NNW,337,0.0,0.0,69,0.00,,,0.00,WUHU21623XXSP,2013-01-21 04:22:00,
2013-01-20 23:27:00,45.7,35.7,29.64,NNW,337,0.0,0.0,68,0.00,,,0.00,WUHU21623XXSP,2013-01-21 04:27:00,
2013-01-20 23:32:00,46.0,36.1,29.64,NNW,337,0.0,0.0,68,0.00,,,0.00,WUHU21623XXSP,2013-01-21 04:32:00,
2013-01-20 23:37:00,46.0,36.1,29.64,NNW,337,0.0,0.0,68,0.00,,,0.00,WUHU21623XXSP,2013-01-21 04:37:00,
2013-01-20 23:42:00,45.7,35.7,29.64,NNW,337,0.0,0.0,68,0.00,,,0.00,WUHU21623XXSP,2013-01-21 04:42:00,
2013-01-20 23:47:00,45.7,35.7,29.63,NNW,337,0.0,0.0,68,0.00,,,0.00,WUHU21623XXSP,2013-01-21 04:47:00,
2013-01-20 23:52:00,45.7,35.7,29.64,NNW,337,0.0,0.0,68,0.00,,,0.00,WUHU21623XXSP,2013-01-21 04:52:00,
2013-01-20 23:57:00,45.7,35.7,29.63,NNW,337,0.0,0.0,68,0.00,,,0.00,WUHU21623XXSP,2013-01-21 04:57:00,